TDRS 8

Last updated on Nov. 18, 2019, 4:21 a.m. UTC

1 26388U 00034A   19320.80966904 -.00000223  00000-0  00000-0 0  9999
2 26388   8.9004  49.0306 0013135 291.3624  95.9909  1.00269169 71072
UTC
Height (km)
Latitude
Longitude
Inclination
Orbital Period
UTC large
Height (km)
Speed (km/s)
/
Latitude / Longitude
Inclination (degrees)
Orbital Period (minutes)
Azimuth
Elevation
Range (km)
Doppler Factor
iOS Compass Heading
iOS Angle

Next 30 passes for location: Hong Kong

Rise time Rise Azimuth (degrees) Set time Set Azimuth (degrees) Duration Max altitude (degrees)

No matching passes for this satellites